Weather History for White Rock, BC

Change the Weather History Date:

Wednesday, November 20, 2013

  Actual Average Record
Temperature  
Mean Temperature 34 °F -  
Max Temperature 42 °F - - ()
Min Temperature 27 °F - - ()
Degree Days  
Heating Degree Days 30    
Moisture  
Dew Point 22 °F    
Average Humidity 64    
Maximum Humidity 84    
Minimum Humidity 41    
Precipitation  
Precipitation 0.00 in - - ()
Sea Level Pressure  
Sea Level Pressure 30.38 in    
Wind  
Wind Speed 2 mph ()    
Max Wind Speed 5 mph    
Max Gust Speed -    
T = Trace of Precipitation, MM = Missing Value Source: Averaged Metar Reports

Daily Weather History Graph

Daily Weather History Graph

Search for Another Location

Airport:

Trip Planner

Search our weather history database for the weather conditions in past years. The results will help you decide how hot, cold, wet, or windy it might be!

Date:

Astronomy

Nov. 20, 2013 Rise Set
Actual Time 7:28 AM PST 4:24 PM PST
Civil Twilight 6:53 AM PST 4:59 PM PST
Nautical Twilight 6:14 AM PST 5:38 PM PST
Astronomical Twilight 5:36 AM PST 6:16 PM PST
Moon 7:12 PM PST (11/20) 9:58 AM PST (11/20)
Length of Visible Light 10h 06m
Length of Day
8h 55m
Waning Gibbous, 91% of the Moon is Illuminated
Nov 20
Waning Gibbous
Nov 25
Last Quarter
Dec 2
New
Dec 9
First Quarter
Dec 17
Full

Hourly Weather History & Observations

Time (PST) Temp. Windchill Dew Point Humidity Pressure Visibility Wind Dir Wind Speed Gust Speed Precip Events Conditions
12:00 AM 31.8 °F - 22.3 °F 68% 30.12 in - NE 2.3 mph - N/A   Unknown
1:00 AM 30.7 °F - 23.0 °F 73% 30.15 in - North 2.3 mph - N/A   Unknown
2:00 AM 31.8 °F 28.5 °F 23.4 °F 71% 30.19 in - North 3.5 mph - N/A   Unknown
3:00 AM 28.8 °F - 23.0 °F 79% 30.22 in - ESE 2.3 mph - N/A   Unknown
4:00 AM 28 °F - 24 °F 78% 30.23 in - NE 2.3 mph - -  
4:00 AM 28.4 °F - 23.9 °F 83% 30.23 in - NE 2.3 mph - N/A   Unknown
5:00 AM 27.9 °F - 23.5 °F 84% 30.26 in - Calm Calm - N/A   Unknown
6:00 AM 29.1 °F 25.4 °F 22.5 °F 76% 30.28 in - NE 3.5 mph - N/A   Unknown
7:00 AM 30.4 °F - 21.9 °F 71% 30.31 in - ENE 2.3 mph - N/A   Unknown
8:00 AM 30.7 °F - 21.4 °F 68% 30.34 in - ENE 2.3 mph - N/A   Unknown
9:00 AM 31.5 °F 28.1 °F 21.2 °F 66% 30.37 in - East 3.5 mph - N/A   Unknown
10:00 AM 37 °F - 22 °F 42% 30.40 in - East 3.5 mph - -  
10:00 AM 37.2 °F 34.7 °F 22.3 °F 55% 30.40 in - East 3.5 mph - N/A   Unknown
11:00 AM 38.8 °F 35.4 °F 21.7 °F 50% 30.40 in - ESE 4.6 mph - N/A   Unknown
12:00 PM 40.5 °F 37.3 °F 19.2 °F 43% 30.40 in - ESE 4.6 mph - N/A   Unknown
1:00 PM 42.1 °F 40.2 °F 20.3 °F 42% 30.41 in - SE 3.5 mph - N/A   Unknown
2:00 PM 41.2 °F - 21.2 °F 45% 30.42 in - South 2.3 mph - N/A   Unknown
3:00 PM 41.0 °F - 24.1 °F 51% 30.43 in - SW 1.2 mph - N/A   Unknown
4:00 PM 39 °F - 24 °F 41% 30.44 in - North 1.2 mph - -  
4:00 PM 38.7 °F - 23.7 °F 55% 30.44 in - North 1.2 mph - N/A   Unknown
5:00 PM 35.1 °F - 25.3 °F 68% 30.45 in - Calm Calm - N/A   Unknown
6:00 PM 31.5 °F - 25.7 °F 79% 30.46 in - NE 2.3 mph - N/A   Unknown
7:00 PM 31.1 °F - 22.8 °F 71% 30.49 in - NE 1.2 mph - N/A   Unknown
8:00 PM 30.6 °F - 21.6 °F 69% 30.51 in - NE 1.2 mph - N/A   Unknown
9:00 PM 30.9 °F 27.5 °F 21.2 °F 67% 30.53 in - NNE 3.5 mph - N/A   Unknown
10:00 PM 31 °F - 21 °F 56% 30.53 in - NE 3.5 mph - -  
10:00 PM 30.7 °F 27.3 °F 21.2 °F 68% 30.53 in - NE 3.5 mph - N/A   Unknown
11:00 PM 30.0 °F 26.5 °F 21.6 °F 71% 30.56 in - NNE 3.5 mph - N/A   Unknown